Back to catalog

ATLAS 5 CENTAUR DEB

AliveHEO
NORAD 43990·DEBRIS·🇺🇸 United States

Launched Sep 17, 2014 from Cape Canaveral Space Force Station

Loading…

Next Passes (next 24 hours)

TLE

FreshSource: Space-Track

Epoch: Sep 5, 2026, 20:22 UTC

1 43990U 14055AV  26248.84908097 -.00000152  00000-0  00000-0 0  9996
2 43990  20.5005 126.7367 4719562 196.5427 140.3419  1.88649585 54644

Track ATLAS 5 CENTAUR DEB in real time with AllMySat

Download on the App Store